TimeMDT,TemperatureF,Dew PointF,Humidity,Sea Level PressureIn,VisibilityMPH,Wind Direction,Wind SpeedMPH,Gust SpeedMPH,PrecipitationIn,Events,Conditions,WindDirDegrees,DateUTC
12:56 AM,23.0,17.1,78,30.23,10.0,SSE,6.9,-,N/A,,Clear,150,2013-04-18 06:56:00
1:56 AM,23.0,17.1,78,30.21,10.0,SSE,3.5,-,N/A,,Clear,160,2013-04-18 07:56:00
2:56 AM,26.1,17.1,69,30.18,10.0,WSW,3.5,-,N/A,,Clear,240,2013-04-18 08:56:00
3:56 AM,25.0,16.0,69,30.16,10.0,Variable,4.6,-,N/A,,Clear,0,2013-04-18 09:56:00
4:56 AM,26.1,17.1,69,30.14,10.0,WSW,8.1,-,N/A,,Clear,240,2013-04-18 10:56:00
5:56 AM,30.0,19.9,66,30.14,10.0,West,16.1,-,N/A,,Clear,260,2013-04-18 11:56:00
6:56 AM,30.9,19.0,61,30.14,10.0,West,16.1,-,N/A,,Clear,270,2013-04-18 12:56:00
7:56 AM,35.1,21.0,57,30.13,10.0,West,13.8,-,N/A,,Clear,260,2013-04-18 13:56:00
8:56 AM,39.0,21.9,50,30.15,10.0,West,20.7,-,N/A,,Clear,280,2013-04-18 14:56:00
9:56 AM,44.1,21.0,40,30.15,10.0,West,20.7,-,N/A,,Clear,280,2013-04-18 15:56:00
10:56 AM,48.0,19.0,32,30.14,10.0,WNW,15.0,25.3,N/A,,Clear,300,2013-04-18 16:56:00
11:56 AM,51.1,19.9,29,30.14,10.0,NW,18.4,-,N/A,,Clear,310,2013-04-18 17:56:00
12:56 PM,51.1,19.0,28,30.15,10.0,WNW,18.4,23.0,N/A,,Partly Cloudy,300,2013-04-18 18:56:00
1:56 PM,52.0,19.0,27,30.14,10.0,WNW,17.3,24.2,N/A,,Clear,300,2013-04-18 19:56:00
2:56 PM,54.0,19.9,26,30.13,10.0,NW,15.0,23.0,N/A,,Clear,310,2013-04-18 20:56:00
3:56 PM,53.1,21.9,30,30.13,10.0,NW,17.3,20.7,N/A,,Partly Cloudy,320,2013-04-18 21:56:00
4:56 PM,51.1,21.9,32,30.12,10.0,NW,15.0,21.9,N/A,,Mostly Cloudy,310,2013-04-18 22:56:00
5:56 PM,52.0,21.0,30,30.11,10.0,West,16.1,-,N/A,,Partly Cloudy,280,2013-04-18 23:56:00
6:56 PM,50.0,23.0,35,30.10,10.0,West,21.9,25.3,N/A,,Mostly Cloudy,260,2013-04-19 00:56:00
7:03 PM,51.8,23.0,33,30.06,10.0,West,21.9,27.6,N/A,,Overcast,260,2013-04-19 01:03:00
7:56 PM,46.0,24.1,42,30.10,10.0,WSW,16.1,-,N/A,,Mostly Cloudy,250,2013-04-19 01:56:00
8:56 PM,41.0,25.0,53,30.10,10.0,West,15.0,-,N/A,,Scattered Clouds,260,2013-04-19 02:56:00
9:56 PM,41.0,25.0,53,30.09,10.0,WSW,19.6,-,N/A,,Partly Cloudy,250,2013-04-19 03:56:00
10:56 PM,39.0,26.1,60,30.06,10.0,WSW,16.1,-,N/A,,Partly Cloudy,250,2013-04-19 04:56:00
11:56 PM,39.9,27.0,60,30.03,10.0,WSW,16.1,-,N/A,,Partly Cloudy,250,2013-04-19 05:56:00